SPACEBEENZ-19 (52404 NORAD) Tracking and Keplerian Element Data
This shows tracking and keplerian element data for the satellite.
Feedback or suggestion? Click here.
Element | Value |
Catalog | 52404 |
Name | SPACEBEENZ-19 |
Epoch Orbit | 1198 |
Epoch Day | 192.4681682 |
Epoch Year | 2022 |
RAAN | 276.8482 |
Inclination | 97.4498 |
Eccentricity | 0.0011554 |
Argument of Perigee | 96.5333 |
Mean Anonmoly | 263.7215 |
Mean Motion | 15.14083625 |
Decay Rate | 8.25E-05 |
L1 | 1 52404U 22047L 22192.46816820 .00008250 00000+0 45604-3 0 9997 |
L2 | 2 52404 97.4498 276.8482 0011554 96.5333 263.7215 15.14083625 11980 |
Live tracking and technical data element details for SPACEBEENZ-19 (NORAD 52404). SPACEBEENZ-19 can be tracked NOW for your location showing map with azimuth and elevation plus other details from your city location.
Track the satellite on the map from your city or location and see movement details for azimuth, elevation, latitude, longitude, range, height, and movement on the map or in text.
IsCatalogInMostPopularTable: catalog: 52404, numindb: 4
Update: records affected: 1
GetName: 52404 SPACEBEENZ-19
Hit Count: updated at: Sun, 14 Aug 2022 00:52:55 GMT